Flag for U.S.A. Weather past 2 weeks in Charlottesville, Virginia, U.S.A.

Now
62 °F

Sunny.


Feels Like: 62 °F
Forecast: 48 / 69 °F
Wind: 14 mph from West

Location: Charlottesville-Albemarle Airport

Current Time: Apr 21, 2015 at 8:28:05 PM

Latest Report: Apr 21, 2015 at 7:53 PM


Visibility: 10 mi

Pressure: 29.78 "Hg

Humidity: 23%

Dew point: 24 °F

Location of CharlottesvilleLocation

Historic Weather in Charlottesville — Graph

°F

Charlottesville temperature yesterday

Maximum temperature yesterday: 78 °F (at 2:53 PM)
Minimum temperature yesterday: 53 °F (at 12:53 AM)
Average temperature yesterday: 64 °F

Past Weeks' High & Low Weather Summary

 TemperatureHumidityPressure
High122 °F (Apr 9, 7:55 AM)100% (Apr 10, 5:53 AM)30.40 "Hg (Apr 10, 5:53 AM)
Low37 °F (Apr 12, 5:53 AM)8% (Apr 9, 7:55 AM)29.51 "Hg (Apr 20, 4:53 PM)
Average60 °F67%30.07 "Hg
* Reported Apr 6 6:53 PM — Apr 21 6:53 PM, Charlottesville, Weather by CustomWeather, © 2015

Note: Actual official high and low records may vary slightly from our data, if they occured in-between our weather recording intervals... More about our weather records

Advertising

Charlottesville weather history for previous 24 hours

 ConditionsComfort  
Time TempWeatherWind HumidityBarometerVisibility
6:53 PM
Tue, Apr 21
65 °FScattered clouds.16 mph22%29.76 "Hg10 mi
5:53 PM65 °FPassing clouds.16 mph24%29.75 "Hg10 mi
4:53 PM67 °FSunny.N/A24%29.73 "Hg10 mi
3:53 PM66 °FPassing clouds.6 mph23%29.73 "Hg10 mi
2:53 PM65 °FSunny.17 mph25%29.75 "Hg10 mi
1:53 PM64 °FSunny.5 mph27%29.76 "Hg10 mi
12:53 PM62 °FSunny.12 mph26%29.78 "Hg10 mi
11:53 AM61 °FSunny.N/A29%29.80 "Hg10 mi
10:53 AM60 °FSunny.8 mph28%29.81 "Hg10 mi
9:53 AM58 °FSunny.8 mph33%29.80 "Hg10 mi
8:53 AM57 °FSunny.3 mph41%29.79 "Hg10 mi
7:53 AM55 °FSunny.3 mph49%29.77 "Hg10 mi
6:53 AM54 °FClear.3 mph47%29.77 "Hg10 mi
5:53 AM55 °FClear.10 mph49%29.73 "Hg10 mi
4:53 AM57 °FPassing clouds.7 mph55%29.70 "Hg10 mi
3:53 AM58 °FClear.7 mph54%29.67 "Hg10 mi
2:53 AM60 °FOvercast.6 mph67%29.63 "Hg10 mi
1:53 AM59 °FPassing clouds.5 mph78%29.61 "Hg10 mi
12:53 AM58 °FPassing clouds.5 mph90%29.60 "Hg10 mi
11:53 PM
Mon, Apr 20
58 °FLight rain. Passing clouds.3 mph90%29.59 "Hg10 mi
10:53 PM58 °FClear.3 mph87%29.56 "Hg10 mi
9:53 PM60 °FPassing clouds.6 mph80%29.55 "Hg10 mi
8:53 PM66 °FThundershowers. Broken clouds.3 mph65%29.56 "Hg10 mi
Weather by CustomWeather, © 2015

See weather overviewHow to use our weather pages